EN

Hourly Weather Amanzimtoti

Today, 26 January, Tuesday

Time Temperature Precipitation Wind Pressure Humidity
00:00 +21°C° 0 mm 4 mps 756 mmHg 87%
01:00 +21°C° 0 mm 3 mps 755 mmHg 86%
02:00 +21°C° 0 mm 3 mps 755 mmHg 84%
03:00 +21°C° 0 mm 3 mps 755 mmHg 84%
04:00 +22°C° 0 mm 3 mps 754 mmHg 83%
05:00 +22°C° 0 mm 3 mps 754 mmHg 83%
06:00 +24°C° 0 mm 3 mps 754 mmHg 78%
07:00 +26°C° 0 mm 3 mps 754 mmHg 74%
08:00 +28°C° 0 mm 3 mps 754 mmHg 70%
09:00 +29°C° 0 mm 4 mps 753 mmHg 65%
10:00 +32°C° 0 mm 4 mps 753 mmHg 60%
11:00 +34°C° 0 mm 4 mps 752 mmHg 56%
12:00 +34°C° 0 mm 4 mps 752 mmHg 55%
13:00 +35°C° 0 mm 4 mps 752 mmHg 55%
14:00 +35°C° 0 mm 4 mps 751 mmHg 55%
15:00 +35°C° 0 mm 4 mps 751 mmHg 59%
16:00 +34°C° 0 mm 3 mps 751 mmHg 64%
17:00 +33°C° 0 mm 3 mps 750 mmHg 68%
18:00 +31°C° 0.1 mm 2 mps 751 mmHg 72%
19:00 +30°C° 0.1 mm 2 mps 752 mmHg 76%
20:00 +28°C° 0.1 mm 2 mps 752 mmHg 80%
21:00 +28°C° 0 mm 2 mps 753 mmHg 77%
22:00 +27°C° 0 mm 3 mps 753 mmHg 74%
23:00 +27°C° 0 mm 3 mps 753 mmHg 71%

Tomorrow, 27 January, Wednesday

Time Temperature Precipitation Wind Pressure Humidity
00:00 +26°C° 0 mm 4 mps 753 mmHg 75%
01:00 +26°C° 0 mm 4 mps 752 mmHg 78%
02:00 +25°C° 0 mm 5 mps 752 mmHg 81%
03:00 +25°C° 0.1 mm 4 mps 752 mmHg 82%
04:00 +25°C° 0.1 mm 4 mps 752 mmHg 83%
05:00 +25°C° 0.1 mm 4 mps 752 mmHg 84%
06:00 +25°C° 0.4 mm 4 mps 752 mmHg 85%
07:00 +25°C° 0.4 mm 3 mps 753 mmHg 86%
08:00 +25°C° 0.4 mm 3 mps 753 mmHg 87%
09:00 +27°C° 0 mm 3 mps 752 mmHg 80%
10:00 +29°C° 0 mm 3 mps 752 mmHg 72%
11:00 +31°C° 0 mm 3 mps 752 mmHg 65%
12:00 +29°C° 0.1 mm 3 mps 752 mmHg 71%
13:00 +28°C° 0.1 mm 4 mps 751 mmHg 78%
14:00 +27°C° 0.1 mm 4 mps 751 mmHg 85%
15:00 +26°C° 1.2 mm 4 mps 751 mmHg 89%
16:00 +26°C° 1.2 mm 5 mps 751 mmHg 93%
17:00 +25°C° 1.2 mm 5 mps 751 mmHg 97%
18:00 +25°C° 6.1 mm 5 mps 751 mmHg 97%
19:00 +25°C° 6.1 mm 4 mps 752 mmHg 98%
20:00 +23°C° 6.1 mm 4 mps 753 mmHg 98%
21:00 +23°C° 6.1 mm 4 mps 753 mmHg 98%
22:00 +23°C° 6.1 mm 4 mps 754 mmHg 97%
23:00 +23°C° 6.1 mm 5 mps 754 mmHg 97%

Day after tomorrow, 28 January, Thursday

Time Temperature Precipitation Wind Pressure Humidity
00:00 +22°C° 2.5 mm 6 mps 755 mmHg 96%
01:00 +22°C° 2.5 mm 7 mps 755 mmHg 95%
02:00 +21°C° 2.5 mm 8 mps 755 mmHg 94%
03:00 +21°C° 2 mm 8 mps 755 mmHg 93%
04:00 +20°C° 2 mm 8 mps 755 mmHg 93%
05:00 +20°C° 2 mm 8 mps 756 mmHg 92%
06:00 +20°C° 1 mm 7 mps 756 mmHg 93%
07:00 +20°C° 1 mm 7 mps 757 mmHg 93%
08:00 +20°C° 1 mm 6 mps 758 mmHg 94%
09:00 +21°C° 0.7 mm 5 mps 758 mmHg 93%
10:00 +21°C° 0.7 mm 5 mps 758 mmHg 93%
11:00 +22°C° 0.7 mm 4 mps 758 mmHg 93%
12:00 +22°C° 0.5 mm 4 mps 758 mmHg 92%
13:00 +22°C° 0.5 mm 4 mps 758 mmHg 92%
14:00 +22°C° 0.5 mm 3 mps 758 mmHg 92%
15:00 +22°C° 0.2 mm 3 mps 758 mmHg 92%
16:00 +22°C° 0.2 mm 3 mps 757 mmHg 91%
17:00 +22°C° 0.2 mm 3 mps 757 mmHg 91%
18:00 +23°C° 0.1 mm 2 mps 757 mmHg 91%
19:00 +21°C° 0.1 mm 2 mps 757 mmHg 91%
20:00 +22°C° 0.1 mm 1 mps 758 mmHg 91%
21:00 +21°C° 0 mm 1 mps 758 mmHg 90%
22:00 +21°C° 0 mm 1 mps 758 mmHg 89%
23:00 +21°C° 0 mm 1 mps 758 mmHg 88%

29 January, Friday

Time Temperature Precipitation Wind Pressure Humidity
00:00 +21°C° 0 mm 1 mps 758 mmHg 89%
01:00 +21°C° 0 mm 1 mps 757 mmHg 89%
02:00 +21°C° 0 mm 1 mps 757 mmHg 89%
03:00 +21°C° 0 mm 1 mps 757 mmHg 88%
04:00 +21°C° 0 mm 1 mps 757 mmHg 88%
05:00 +22°C° 0 mm 1 mps 757 mmHg 87%
06:00 +22°C° 0 mm 1 mps 757 mmHg 87%
07:00 +22°C° 0 mm 1 mps 757 mmHg 87%
08:00 +22°C° 0 mm 1 mps 757 mmHg 86%
09:00 +23°C° 0 mm 2 mps 757 mmHg 82%
10:00 +24°C° 0 mm 2 mps 757 mmHg 78%
11:00 +26°C° 0 mm 2 mps 757 mmHg 73%
12:00 +26°C° 0 mm 3 mps 756 mmHg 73%
13:00 +26°C° 0 mm 4 mps 756 mmHg 73%
14:00 +27°C° 0 mm 4 mps 755 mmHg 73%
15:00 +27°C° 0 mm 4 mps 755 mmHg 75%
16:00 +26°C° 0 mm 4 mps 755 mmHg 77%
17:00 +26°C° 0 mm 4 mps 754 mmHg 79%
18:00 +25°C° 0 mm 4 mps 755 mmHg 83%
19:00 +24°C° 0 mm 3 mps 755 mmHg 88%
20:00 +22°C° 0 mm 3 mps 755 mmHg 92%
21:00 +22°C° 0 mm 3 mps 756 mmHg 92%
22:00 +23°C° 0 mm 2 mps 756 mmHg 93%
23:00 +23°C° 0 mm 2 mps 756 mmHg 93%

30 January, Saturday

Time Temperature Precipitation Wind Pressure Humidity
00:00 +23°C° 0 mm 2 mps 756 mmHg 93%
01:00 +23°C° 0 mm 2 mps 755 mmHg 93%
02:00 +23°C° 0 mm 1 mps 755 mmHg 93%
03:00 +23°C° 0 mm 1 mps 755 mmHg 93%
04:00 +23°C° 0 mm 1 mps 755 mmHg 92%
05:00 +23°C° 0 mm 1 mps 755 mmHg 92%
06:00 +24°C° 0 mm 1 mps 755 mmHg 87%
07:00 +26°C° 0 mm 1 mps 755 mmHg 83%
08:00 +26°C° 0 mm 0 mps 755 mmHg 78%
09:00 +29°C° 0 mm 1 mps 754 mmHg 75%
10:00 +30°C° 0 mm 2 mps 754 mmHg 72%
11:00 +31°C° 0 mm 2 mps 754 mmHg 69%
12:00 +31°C° 0 mm 3 mps 753 mmHg 70%
13:00 +31°C° 0 mm 3 mps 752 mmHg 71%
14:00 +32°C° 0 mm 4 mps 752 mmHg 72%
15:00 +32°C° 0 mm 4 mps 751 mmHg 75%
16:00 +30°C° 0 mm 4 mps 751 mmHg 78%
17:00 +29°C° 0 mm 4 mps 751 mmHg 81%
18:00 +28°C° 0.3 mm 4 mps 751 mmHg 86%
19:00 +27°C° 0.3 mm 4 mps 751 mmHg 90%
20:00 +27°C° 0.3 mm 4 mps 751 mmHg 95%
21:00 +27°C° 0 mm 4 mps 751 mmHg 94%
22:00 +26°C° 0 mm 3 mps 751 mmHg 93%
23:00 +26°C° 0 mm 3 mps 751 mmHg 93%

31 January, Sunday

Time Temperature Precipitation Wind Pressure Humidity
00:00 +26°C° 0 mm 3 mps 751 mmHg 91%
01:00 +26°C° 0 mm 4 mps 750 mmHg 89%
02:00 +26°C° 0 mm 4 mps 750 mmHg 88%
03:00 +26°C° 0 mm 3 mps 750 mmHg 88%
04:00 +25°C° 0 mm 3 mps 750 mmHg 88%
05:00 +25°C° 0 mm 2 mps 750 mmHg 89%
06:00 +26°C° 0 mm 3 mps 751 mmHg 87%
07:00 +27°C° 0 mm 4 mps 751 mmHg 86%
08:00 +28°C° 0 mm 5 mps 751 mmHg 84%
09:00 +29°C° 0 mm 5 mps 751 mmHg 83%
10:00 +29°C° 0 mm 5 mps 751 mmHg 81%
11:00 +29°C° 0 mm 5 mps 751 mmHg 80%
12:00 +29°C° 0 mm 5 mps 750 mmHg 81%
13:00 +29°C° 0 mm 5 mps 750 mmHg 82%
14:00 +29°C° 0 mm 6 mps 750 mmHg 82%
15:00 +28°C° 0.1 mm 6 mps 750 mmHg 85%
16:00 +27°C° 0.1 mm 6 mps 750 mmHg 88%
17:00 +26°C° 0.1 mm 7 mps 751 mmHg 91%
18:00 +26°C° 0.1 mm 6 mps 751 mmHg 92%
19:00 +24°C° 0.1 mm 6 mps 752 mmHg 92%
20:00 +25°C° 0.1 mm 5 mps 753 mmHg 93%
21:00 +24°C° 0.1 mm 6 mps 754 mmHg 93%
22:00 +23°C° 0.1 mm 7 mps 754 mmHg 92%
23:00 +23°C° 0.1 mm 7 mps 755 mmHg 92%
Show more